Weather reports worldwide

Advertisment
Ansbach/Katterbach, Germany (10755): temperature & dewpoint: 10.09.2019 05:00:00 - 16.09.2019 05:00:00 (CEST)Ansbach/Katterbach, Germany (10755): wind speed: 10.09.2019 05:00:00 - 16.09.2019 05:00:00 (CEST)Ansbach/Katterbach, Germany (10755): wind direction: 10.09.2019 05:00:00 - 16.09.2019 05:00:00 (CEST)Ansbach/Katterbach, Germany (10755): reduced air pressure: 10.09.2019 05:00:00 - 16.09.2019 05:00:00 (CEST)Ansbach/Katterbach, Germany (10755): visibility: 10.09.2019 05:00:00 - 16.09.2019 05:00:00 (CEST)Ansbach/Katterbach, Germany (10755): precipitation: 10.09.2019 05:00:00 - 16.09.2019 05:00:00 (CEST)
Date & Time tt [°C] td [°C] ff [km/h] ff [kn] dd ppp [hPa] vv [km] rr [mm]
16.09.2019 05:00:00 12,1 9,3 8 4 W 1021,1 10 -
16.09.2019 04:00:00 11,7 9,8 5 3 WSW 1021,5 10 -
16.09.2019 03:00:00 12,7 9,5 5 3 SW 1021,8 10 -
16.09.2019 02:00:00 13,9 9,3 5 3 S 1021,8 10 -
16.09.2019 01:00:00 14,7 9,7 0 0 N 1022,2 10 -
16.09.2019 00:00:00 15,0 9,8 5 3 WSW 1022,2 10 -
15.09.2019 23:00:00 15,4 9,7 0 0 N 1022,4 10 -
15.09.2019 22:00:00 17,8 9,9 5 3 W 1022,7 10 -
15.09.2019 21:00:00 18,7 9,7 9 5 W 1022,6 10 -
15.09.2019 20:00:00 20,3 9,8 8 4 W 1022,4 10 -
15.09.2019 19:00:00 23,0 11,4 9 5 W 1021,9 10 -
15.09.2019 18:00:00 24,6 10,1 16 9 W 1022,0 10 -
15.09.2019 17:00:00 25,5 11,6 13 7 W 1022,2 10 -
15.09.2019 16:00:00 26,2 11,5 16 9 WSW 1022,8 10 -
15.09.2019 15:00:00 25,6 12,8 18 10 W 1023,0 10 -
15.09.2019 14:00:00 24,9 13,4 18 10 WSW 1023,9 10 -
15.09.2019 13:00:00 24,0 14,1 11 6 W 1024,8 10 -
15.09.2019 12:00:00 22,7 14,5 15 8 WSW 1025,2 10 -
15.09.2019 11:00:00 21,4 15,0 11 6 SW 1025,6 10 -
15.09.2019 10:00:00 18,2 15,1 9 5 SSW 1026,1 10 -
15.09.2019 09:00:00 15,7 15,2 8 4 SSW 1026,0 10 -
15.09.2019 08:00:00 12,8 12,8 5 3 SSW 1026,3 10 -
15.09.2019 07:00:00 11,8 11,8 5 3 SSW 1026,2 10 -
15.09.2019 06:00:00 11,6 11,6 8 4 S 1026,3 10 -
15.09.2019 05:00:00 12,0 12,0 5 3 S 1026,7 10 -
15.09.2019 04:00:00 11,9 11,7 5 3 SSW 1027,4 10 -
15.09.2019 03:00:00 13,1 12,0 5 3 S 1027,7 10 -
15.09.2019 02:00:00 13,6 11,6 5 3 SSE 1027,8 10 -
15.09.2019 01:00:00 12,9 10,8 8 4 SSE 1028,0 10 -
15.09.2019 00:00:00 14,6 10,6 0 0 N 1028,7 10 -
14.09.2019 23:00:00 16,1 10,8 5 3 ENE 1029,3 10 -
14.09.2019 22:00:00 18,0 10,6 9 5 NNE 1029,6 10 -
14.09.2019 21:00:00 18,9 10,7 8 4 NE 1030,0 10 -
14.09.2019 20:00:00 19,9 10,3 5 3 NE 1029,6 10 -
14.09.2019 19:00:00 20,7 10,5 0 0 N 1029,4 10 0,0
14.09.2019 18:00:00 21,6 10,4 8 4 NNE 1029,4 10 -
14.09.2019 17:00:00 21,8 10,9 5 3 NNW 1029,5 10 -
14.09.2019 16:00:00 21,5 10,6 5 3 NNE 1029,9 10 0,0
14.09.2019 15:00:00 21,6 11,0 5 3 NW 1030,9 10 -
14.09.2019 14:00:00 21,1 12,0 5 3 NNE 1031,3 10 -
14.09.2019 13:00:00 20,0 13,2 13 7 N 1031,6 10 -
14.09.2019 12:00:00 19,2 12,9 5 3 NNE 1032,2 10 -
14.09.2019 11:00:00 16,5 12,4 9 5 NE 1032,7 10 -
14.09.2019 10:00:00 14,7 12,0 13 7 NE 1033,4 10 -
14.09.2019 09:00:00 12,8 12,6 16 9 NNE 1033,4 10 -
14.09.2019 08:00:00 12,2 12,2 11 6 NNE 1033,0 10 -
14.09.2019 07:00:00 12,5 12,5 8 4 NNE 1032,5 10 -
14.09.2019 06:00:00 12,7 12,7 9 5 N 1032,5 10 -
14.09.2019 05:00:00 13,6 13,4 11 6 NNE 1032,3 10 -
14.09.2019 04:00:00 14,1 13,5 11 6 NE 1032,6 10 -
14.09.2019 03:00:00 14,5 13,2 8 4 NNE 1032,4 10 -
14.09.2019 02:00:00 15,0 13,0 11 6 N 1032,6 10 -
14.09.2019 01:00:00 15,2 12,7 5 3 N 1032,6 10 -
14.09.2019 00:00:00 15,9 12,6 8 4 NNW 1033,0 10 -
13.09.2019 23:00:00 15,9 12,4 5 3 NNW 1033,2 10 -
13.09.2019 22:00:00 16,7 13,0 0 0 N 1033,2 10 -
13.09.2019 21:00:00 18,6 13,2 0 0 N 1032,5 10 -
13.09.2019 20:00:00 19,3 13,5 9 5 N 1032,7 10 0,0
13.09.2019 19:00:00 20,1 13,1 11 6 N 1032,4 10 0,0
13.09.2019 18:00:00 20,5 13,4 11 6 NW 1032,2 10 -
13.09.2019 17:00:00 21,5 13,6 11 6 NW 1031,9 10 -
13.09.2019 16:00:00 21,8 13,2 13 7 NW 1031,9 10 -
13.09.2019 15:00:00 22,6 12,8 13 7 WNW 1031,7 10 -
13.09.2019 14:00:00 21,4 13,3 5 3 NNW 1032,3 10 -
13.09.2019 13:00:00 21,4 13,6 11 6 WNW 1032,6 10 -
13.09.2019 12:00:00 19,2 14,0 9 5 W 1033,2 10 -
13.09.2019 11:00:00 18,5 14,0 9 5 WSW 1032,8 10 -
13.09.2019 10:00:00 16,8 14,4 0 0 N 1032,5 10 -
13.09.2019 09:00:00 15,5 14,2 5 3 WSW 1032,5 10 -
13.09.2019 08:00:00 12,8 12,8 0 0 N 1032,4 10 -
13.09.2019 07:00:00 12,2 12,2 0 0 N 1032,4 10 -
13.09.2019 06:00:00 12,6 12,6 0 0 N 1031,8 10 -
13.09.2019 05:00:00 13,2 13,0 0 0 N 1031,6 10 -
13.09.2019 04:00:00 13,9 13,3 0 0 N 1031,6 10 -
13.09.2019 03:00:00 14,5 12,9 5 3 WSW 1031,6 10 -
13.09.2019 02:00:00 15,3 12,8 0 0 N 1031,4 10 -
13.09.2019 01:00:00 15,3 12,8 0 0 N 1031,6 10 -
13.09.2019 00:00:00 15,2 12,7 0 0 N 1031,8 10 -
12.09.2019 23:00:00 15,4 12,3 5 3 WSW 1031,8 10 -
12.09.2019 22:00:00 16,7 12,4 0 0 N 1031,8 10 -
12.09.2019 21:00:00 18,2 12,4 5 3 SW 1031,5 10 -
12.09.2019 20:00:00 18,5 12,2 8 4 WSW 1031,5 10 -
12.09.2019 19:00:00 20,6 12,0 15 8 W 1031,1 10 -
12.09.2019 18:00:00 21,5 12,1 15 8 WSW 1030,6 10 -
12.09.2019 17:00:00 22,6 12,5 21 11 WSW 1030,7 10 -
12.09.2019 16:00:00 21,6 12,2 18 10 W 1031,3 10 -
12.09.2019 15:00:00 21,2 12,1 16 9 WSW 1031,3 10 -
12.09.2019 14:00:00 22,1 11,5 24 13 WSW 1031,3 10 -
12.09.2019 13:00:00 21,8 11,5 22 12 WSW 1031,6 10 0,0
12.09.2019 12:00:00 19,4 10,4 21 11 W 1031,8 10 0,0
12.09.2019 11:00:00 19,7 9,0 21 11 SW 1031,1 10 -
12.09.2019 10:00:00 17,2 9,4 9 5 SW 1031,5 10 -
12.09.2019 09:00:00 16,3 9,5 13 7 SSW 1030,3 10 -
12.09.2019 08:00:00 14,6 9,0 9 5 S 1030,2 10 -
12.09.2019 07:00:00 13,9 9,1 8 4 SSE 1029,6 10 -
12.09.2019 06:00:00 14,2 8,6 8 4 SW 1029,1 10 -
12.09.2019 05:00:00 14,2 8,6 8 4 SW 1028,7 10 -
12.09.2019 04:00:00 14,2 8,6 8 4 SW 1028,7 10 -
12.09.2019 03:00:00 14,3 7,8 8 4 S 1028,4 10 -
12.09.2019 02:00:00 14,4 7,7 5 3 SW 1028,4 10 -
12.09.2019 01:00:00 14,1 8,1 8 4 SW 1027,9 10 -
12.09.2019 00:00:00 14,1 7,8 9 5 SW 1027,6 10 -
11.09.2019 23:00:00 13,9 7,9 9 5 WSW 1027,8 10 -
11.09.2019 22:00:00 13,8 6,9 9 5 W 1027,6 10 -
11.09.2019 21:00:00 15,5 6,5 5 3 WSW 1027,0 10 -
11.09.2019 20:00:00 15,7 6,1 0 0 N 1026,7 10 -
11.09.2019 19:00:00 17,8 6,3 11 6 W 1026,3 10 -
11.09.2019 18:00:00 19,7 7,1 21 11 W 1025,8 10 -
11.09.2019 17:00:00 20,2 7,2 21 11 SW 1025,4 10 -
11.09.2019 16:00:00 19,7 7,4 11 6 WSW 1024,9 10 -
11.09.2019 15:00:00 19,8 7,2 8 4 W 1024,9 10 -
11.09.2019 14:00:00 20,0 6,3 0 0 N 1025,2 10 -
11.09.2019 13:00:00 18,4 5,9 5 3 ESE 1025,2 10 -
11.09.2019 12:00:00 17,6 5,8 0 0 N 1025,6 10 -
11.09.2019 11:00:00 16,7 8,1 0 0 N 1025,6 10 -
11.09.2019 10:00:00 14,3 8,9 0 0 N 1025,4 10 -
11.09.2019 09:00:00 11,4 9,5 0 0 N 1024,8 10 -
11.09.2019 08:00:00 8,3 8,2 0 0 N 1024,8 10 -
11.09.2019 07:00:00 6,4 6,4 0 0 N 1024,5 10 -
11.09.2019 06:00:00 6,6 6,6 0 0 N 1023,6 10 -
11.09.2019 05:00:00 6,8 6,8 5 3 WSW 1022,9 10 -
11.09.2019 04:00:00 7,4 7,4 0 0 N 1022,9 10 -
11.09.2019 03:00:00 7,8 7,7 5 3 WNW 1022,7 10 -
11.09.2019 02:00:00 8,2 8,1 5 3 W 1022,9 10 -
11.09.2019 01:00:00 9,4 7,5 0 0 N 1022,6 10 -
11.09.2019 00:00:00 10,0 7,2 0 0 N 1022,6 10 -
10.09.2019 23:00:00 11,4 7,1 0 0 N 1022,6 10 -
10.09.2019 22:00:00 12,3 7,0 0 0 N 1022,2 10 -
10.09.2019 21:00:00 14,5 6,8 0 0 N 1021,9 10 -
10.09.2019 20:00:00 14,7 6,0 5 3 E 1021,4 10 -
10.09.2019 19:00:00 16,1 6,0 0 0 N 1020,7 10 -
10.09.2019 18:00:00 16,5 6,3 0 0 N 1020,2 10 -
10.09.2019 17:00:00 16,9 7,3 8 4 N 1019,8 10 -
10.09.2019 16:00:00 16,7 7,1 8 4 N 1019,8 10 -
10.09.2019 15:00:00 16,8 6,6 0 0 N 1019,6 10 -
10.09.2019 14:00:00 15,5 8,0 8 4 ENE 1019,8 10 0,0
10.09.2019 13:00:00 14,5 8,9 0 0 N 1019,8 10 -
10.09.2019 12:00:00 13,5 9,0 9 5 E 1020,0 10 -
10.09.2019 11:00:00 13,3 11,9 13 7 SSE 1019,7 10 -
10.09.2019 10:00:00 11,8 11,8 8 4 SE 1019,4 10 -
10.09.2019 09:00:00 9,5 9,5 0 0 N 1019,6 10 -
10.09.2019 08:00:00 5,9 5,9 5 3 SSE 1019,1 1,0 -
10.09.2019 07:00:00 5,3 5,3 5 3 SSW 1019,0 0,4 -
10.09.2019 06:00:00 6,2 6,2 0 0 N 1017,8 3,0 -
10.09.2019 05:00:00 6,4 6,4 0 0 N 1017,8 0,8 -

tt = temperature
td = dewpoint
ff = wind speed
dd = wind direction
ppp = reduced air pressure
vv = visibility
rr = precipitation

Next stations